Terug naar catalogus

SL-16 DEB

ActiefLEO
NORAD 25254·DEBRIS·🇷🇺 Russia

Gelanceerd Sep 16, 1993 vanaf Baikonur Cosmodrome

Loading…

Volgende Passages (komende 24 uur)

TLE

VersSource: Space-Track

Epoch: Sep 14, 2026, 06:42 UTC

1 25254U 93059H   26257.27978837  .00000169  00000-0  95002-4 0  9993
2 25254  70.9868 198.2576 0016310 200.2946 310.2414 14.23746972510264

Volg SL-16 DEB in realtime met AllMySat

Download on the App Store